Starlink 11101

operational
NORAD ID: 59715 Int'l Des: 2024-088 Owner: SPXS Country: US Constellation: starlink
LEOCIRCULAR

Starlink 11101について

説明を読み込み中...

リアルタイム位置

3D地球を読み込み中...

次回通過

高度履歴

Altitude vs Time

uPlot chart will show altitude changes over time

軌道要素

1 59715U 24088H 26034.56408234 -.00001490 00000-0 -74473-5 0 9992
2 59715 53.1577 134.4075 0000963 85.1783 274.9345 15.69706472100913
Epoch: Feb 3, 2026 • Age: 23 hours

現在のステータス

高度 363.3 km
速度 7.69 km/s
衛星直下点 -12.53°S, 159.61°E
打ち上げ日 May 10, 2024
運用期間 1.7 years
タイプ internet

技術仕様

分類 Payload
質量 960.00 kg
乾燥質量 910.00 kg
総質量 960.00 kg
長さ 0.30 m
直径 4.10 m
スパン 29.00 m
形状 Box + pan
製造者 SPXS
バスタイプ Starlink V2MD
フェーズステータス In Orbit
所有者/国 SPXS/US

大規模コンステレーション

Loading constellations...